Location: Im Fang
(46.6019°N, 7.2397°E)
Time: 11:22:15
(UTC+00:00)

CZ-4B DEB - Pass Details

Date: 08 December 2019
Orbit: 841 x 861 km, 99.1° (Epoch: 28 January)

Event Time Altitude Azimuth Distance (km) Brightness Sun altitude
Rises 05:18:17 0° 12° (NNE) 3,428 7.3 -17.0°
Reaches altitude 10° 05:20:41 10° 9° (N) 2,491 6.6 -16.6°
Maximum altitude 05:26:08 64° 289° (WNW) 944 4.2 -15.7°
Drops below altitude 10° 05:31:35 10° 209° (SSW) 2,486 6.5 -14.8°
Sets 05:33:58 0° 207° (SSW) 3,421 7.3 -14.4°
